Content
SEND FEEDBACK

Daily
Averages
Monthly
Summary
United States of America

CHESTERFIELD, MISSOURI


Home > North America > United States > Missouri
Elevation: 559 feet     Latitude: 38 41N     Longitude: 090 31W

WEATHER
 
SELECT A DAY
Number of Records: 203,416;   Date Range: 1/1/95 - 7/26/14
 
SHARE

PRINT THIS DATA

[ ← Previous Day ]
WEATHER ALMANAC - FEBRUARY 4, 2013
[ Next Day → ]
[ °C ]   °F
Weather ElementAverageHighLow
Temperature39.4 °F57 °F (12:51 pm)28 °F (1:51 am)
Dewpoint26.3 °F33.1 °F (1:51 pm)19 °F (1:51 am)
Humidity61.2 %80 % (10:22 pm)38 % (11:51 am)
Barometer29.91 in30.00 in (8:51 pm)29.80 in (1:08 pm)
Wind Speed9 mph17.3 mph (2:51 pm)
Wind Gust23 mph (3:51 pm)
Weather ElementAverage
Visibility9.4 mi
Wind DirectionSSW (200 °)

Weather ElementTotal
Precipitation---
Heating Degree Days22.5 (Base 65)
Averaged from 26 records on February 4, 2013
WEATHER CONDITIONS BREAKOUT
WIND DIRECTION BREAKOUT
WEATHER BY HOUR - FEBRUARY 4, 2013
[ °C ]   °F
Local TimeTemperatureDewpointHumidityBarometerVisibilityWind DirectionWind SpeedGust SpeedPrecipitationEventsConditions
1:51 AM28.0 °F19.0 °F69 %29.99 in10.0 miESE (120°)8.1 mphOvercast
2:51 AM28.9 °F21.0 °F72 %29.97 in10.0 miESE (120°)8.1 mphOvercast
4:51 AM30.2 °F21.2 °F69 %29.87 in10.0 miESE (110°)8.1 mphOvercast
5:51 AM35.1 °F23.0 °F61 %29.88 in10.0 miSE (130°)5.8 mphOvercast
6:51 AM37.0 °F23.0 °F57 %29.87 in10.0 miSE (140°)8.1 mphOvercast
7:51 AM37.0 °F24.1 °F59 %29.87 in10.0 miNorth (360°)4.6 mphMostly Cloudy
8:51 AM36.0 °F26.1 °F67 %29.88 in10.0 miESE (120°)3.5 mphOvercast
9:51 AM43.0 °F25.0 °F49 %29.86 in10.0 miSouth (190°)3.5 mphMostly Cloudy
10:51 AM48.0 °F27.0 °F44 %29.85 in10.0 miSSW (210°)8.1 mphMostly Cloudy
11:51 AM55.0 °F30.0 °F38 %29.83 in10.0 miWest (260°)10.4 mphPartly Cloudy
12:51 PM57.0 °F32.0 °F39 %29.82 in10.0 miWest (280°)11.5 mphScattered Clouds
1:08 PM53.6 °F32.0 °F44 %29.80 in10.0 miNNW (330°)13.8 mphScattered Clouds
1:51 PM55.0 °F33.1 °F43 %29.81 in10.0 miNW (320°)12.7 mphScattered Clouds
2:51 PM53.1 °F33.1 °F47 %29.82 in10.0 miNNW (330°)17.3 mphPartly Cloudy
3:51 PM50.0 °F30.9 °F48 %29.85 in10.0 miNW (320°)15.0 mph23.0 mphScattered Clouds
4:51 PM46.9 °F30.9 °F54 %29.87 in10.0 miNW (320°)10.4 mphScattered Clouds
5:51 PM41.0 °F28.9 °F62 %29.91 in10.0 miNNW (340°)11.5 mphPartly Cloudy
6:51 PM37.9 °F27.0 °F65 %29.94 in10.0 miNNW (340°)9.2 mphScattered Clouds
7:51 PM34.0 °F25.0 °F70 %29.97 in10.0 miNorth (360°)15.0 mph21.9 mphMostly Cloudy
8:51 PM32.0 °F25.0 °F75 %30.00 in8.0 miNNE (20°)10.4 mphMostly Cloudy
9:15 PM32.0 °F24.8 °F75 %30.00 in8.0 miNorth (350°)9.2 mphMostly Cloudy
9:33 PM32.0 °F24.8 °F75 %29.98 in8.0 miNE (40°)6.9 mphMostly Cloudy
9:51 PM30.9 °F24.1 °F76 %30.00 in8.0 miNNE (20°)5.8 mphMostly Cloudy
10:22 PM30.2 °F24.8 °F80 %29.99 in8.0 miNNE (20°)5.8 mphMostly Cloudy
10:51 PM30.9 °F24.1 °F76 %29.99 in8.0 miNE (40°)4.6 mphMostly Cloudy
11:51 PM30.9 °F24.1 °F76 %30.00 in7.0 miNorth (10°)6.9 mphMostly Cloudy
Hourly data recorded from KSTL, located miles away from Chesterfield, Missouri







STORIES FROM OUR PARTNERS